Time,TemperatureF,DewpointF,PressureIn,WindDirection,WindDirectionDegrees,WindSpeedMPH,WindSpeedGustMPH,Humidity,HourlyPrecipIn,Conditions,Clouds,dailyrainin,SoftwareType,DateUTC
2013-08-16 00:00:00,57.1,55.1,30.15,South,169,0.0,0.0,93,0.00,,,0.00,Wunderground v.1.15,2013-08-16 04:00:00,
2013-08-16 00:05:00,56.9,54.9,30.15,SSE,168,0.0,0.0,93,0.00,,,0.00,Wunderground v.1.15,2013-08-16 04:05:00,
2013-08-16 00:10:00,56.8,54.5,30.15,South,169,0.0,0.0,92,0.00,,,0.00,Wunderground v.1.15,2013-08-16 04:10:00,
2013-08-16 00:15:00,56.6,54.6,30.15,SSE,168,0.0,0.0,93,0.00,,,0.00,Wunderground v.1.15,2013-08-16 04:15:00,
2013-08-16 00:25:00,56.3,54.3,30.15,South,169,0.0,0.0,93,0.00,,,0.00,Wunderground v.1.15,2013-08-16 04:25:00,
2013-08-16 00:30:00,56.2,54.2,30.15,SSE,168,0.0,0.0,93,0.00,,,0.00,Wunderground v.1.15,2013-08-16 04:30:00,
2013-08-16 00:35:00,56.3,54.3,30.15,SSE,168,0.0,0.0,93,0.00,,,0.00,Wunderground v.1.15,2013-08-16 04:35:00,
2013-08-16 00:40:00,56.3,54.3,30.16,SSE,168,0.0,0.0,93,0.00,,,0.00,Wunderground v.1.15,2013-08-16 04:40:00,
2013-08-16 00:45:00,56.3,54.3,30.16,SSE,168,0.0,0.0,93,0.00,,,0.00,Wunderground v.1.15,2013-08-16 04:45:00,
2013-08-16 00:50:00,56.4,54.4,30.15,SSE,168,0.0,0.0,93,0.00,,,0.00,Wunderground v.1.15,2013-08-16 04:50:00,
2013-08-16 01:00:00,56.7,54.7,30.15,SSE,168,0.0,0.0,93,0.00,,,0.00,Wunderground v.1.15,2013-08-16 05:00:00,
2013-08-16 01:10:00,56.8,54.8,30.15,SSE,168,0.0,0.0,93,0.00,,,0.00,Wunderground v.1.15,2013-08-16 05:10:00,
2013-08-16 01:15:00,56.9,54.9,30.15,South,169,0.0,0.0,93,0.00,,,0.00,Wunderground v.1.15,2013-08-16 05:15:00,
2013-08-16 01:20:00,56.9,54.9,30.15,SSE,168,0.0,0.0,93,0.00,,,0.00,Wunderground v.1.15,2013-08-16 05:20:00,
2013-08-16 01:25:00,56.9,54.9,30.15,SSE,168,0.0,0.0,93,0.00,,,0.00,Wunderground v.1.15,2013-08-16 05:25:00,
2013-08-16 01:30:00,57.0,55.0,30.15,South,169,0.0,0.0,93,0.00,,,0.00,Wunderground v.1.15,2013-08-16 05:30:00,
2013-08-16 01:40:00,57.1,55.1,30.14,SSE,168,0.0,0.0,93,0.00,,,0.00,Wunderground v.1.15,2013-08-16 05:40:00,
2013-08-16 01:45:00,57.1,55.1,30.14,SSE,168,0.0,0.0,93,0.00,,,0.00,Wunderground v.1.15,2013-08-16 05:45:00,
2013-08-16 01:55:00,57.1,55.1,30.14,SSE,168,0.0,0.0,93,0.00,,,0.00,Wunderground v.1.15,2013-08-16 05:55:00,
2013-08-16 02:00:00,56.9,54.9,30.14,South,169,0.0,0.0,93,0.00,,,0.00,Wunderground v.1.15,2013-08-16 06:00:00,
2013-08-16 02:05:00,56.9,54.9,30.14,South,169,0.0,0.0,93,0.00,,,0.00,Wunderground v.1.15,2013-08-16 06:05:00,
2013-08-16 02:10:00,56.7,54.7,30.14,SSE,168,0.0,0.0,93,0.00,,,0.00,Wunderground v.1.15,2013-08-16 06:10:00,
2013-08-16 02:15:00,56.5,54.5,30.14,SSE,168,0.0,0.0,93,0.00,,,0.00,Wunderground v.1.15,2013-08-16 06:15:00,
2013-08-16 02:25:00,56.2,54.2,30.14,SSE,168,0.0,0.0,93,0.00,,,0.00,Wunderground v.1.15,2013-08-16 06:25:00,
2013-08-16 02:30:00,56.1,54.1,30.14,SSE,168,0.0,0.0,93,0.00,,,0.00,Wunderground v.1.15,2013-08-16 06:30:00,
2013-08-16 02:40:00,55.8,53.8,30.14,SSE,168,0.0,0.0,93,0.00,,,0.00,Wunderground v.1.15,2013-08-16 06:40:00,
2013-08-16 02:50:00,55.5,53.5,30.14,South,169,0.0,0.0,93,0.00,,,0.00,Wunderground v.1.15,2013-08-16 06:50:00,
2013-08-16 02:55:00,55.4,53.4,30.14,SSE,168,0.0,0.0,93,0.00,,,0.00,Wunderground v.1.15,2013-08-16 06:55:00,
2013-08-16 03:00:00,55.3,53.3,30.14,SSE,168,0.0,0.0,93,0.00,,,0.00,Wunderground v.1.15,2013-08-16 07:00:00,
2013-08-16 03:10:00,55.0,53.0,30.13,South,169,0.0,0.0,93,0.00,,,0.00,Wunderground v.1.15,2013-08-16 07:10:00,
2013-08-16 03:15:00,54.9,52.9,30.13,SSE,168,0.0,0.0,93,0.00,,,0.00,Wunderground v.1.15,2013-08-16 07:15:00,
2013-08-16 03:25:00,54.8,52.8,30.13,SSE,168,0.0,0.0,93,0.00,,,0.00,Wunderground v.1.15,2013-08-16 07:25:00,
2013-08-16 03:30:00,54.8,52.8,30.13,SSE,168,0.0,0.0,93,0.00,,,0.00,Wunderground v.1.15,2013-08-16 07:30:00,
2013-08-16 03:35:00,54.8,52.8,30.13,South,169,0.0,0.0,93,0.00,,,0.00,Wunderground v.1.15,2013-08-16 07:35:00,
2013-08-16 03:40:00,54.8,53.1,30.13,SSE,168,0.0,0.0,94,0.00,,,0.00,Wunderground v.1.15,2013-08-16 07:40:00,
2013-08-16 03:45:00,54.8,53.1,30.13,SSE,168,0.0,0.0,94,0.00,,,0.00,Wunderground v.1.15,2013-08-16 07:45:00,
2013-08-16 03:55:00,54.5,52.5,30.12,SSE,168,0.0,0.0,93,0.00,,,0.00,Wunderground v.1.15,2013-08-16 07:55:00,
2013-08-16 04:00:00,54.3,52.3,30.13,SSE,168,0.0,0.0,93,0.00,,,0.00,Wunderground v.1.15,2013-08-16 08:00:00,
2013-08-16 04:10:00,54.1,52.4,30.13,SSE,168,0.0,0.0,94,0.00,,,0.00,Wunderground v.1.15,2013-08-16 08:10:00,
2013-08-16 04:15:00,54.0,52.0,30.13,SSE,168,0.0,0.0,93,0.00,,,0.00,Wunderground v.1.15,2013-08-16 08:15:00,
2013-08-16 04:25:00,53.9,51.9,30.13,South,169,0.0,0.0,93,0.00,,,0.00,Wunderground v.1.15,2013-08-16 08:25:00,
2013-08-16 04:30:00,53.9,51.9,30.12,SSE,168,0.0,0.0,93,0.00,,,0.00,Wunderground v.1.15,2013-08-16 08:30:00,
2013-08-16 04:35:00,53.9,52.2,30.12,SSE,168,0.0,0.0,94,0.00,,,0.00,Wunderground v.1.15,2013-08-16 08:35:00,
2013-08-16 04:40:00,53.8,52.1,30.12,SSE,168,0.0,0.0,94,0.00,,,0.00,Wunderground v.1.15,2013-08-16 08:40:00,
2013-08-16 04:45:00,53.8,52.1,30.12,SSE,168,0.0,0.0,94,0.00,,,0.00,Wunderground v.1.15,2013-08-16 08:45:00,
2013-08-16 04:55:00,53.7,52.0,30.13,South,169,0.0,0.0,94,0.00,,,0.00,Wunderground v.1.15,2013-08-16 08:55:00,
2013-08-16 05:00:00,53.7,52.0,30.12,South,169,0.0,0.0,94,0.00,,,0.00,Wunderground v.1.15,2013-08-16 09:00:00,
2013-08-16 05:10:00,53.5,51.8,30.12,SSE,168,0.0,0.0,94,0.00,,,0.00,Wunderground v.1.15,2013-08-16 09:10:00,
2013-08-16 05:15:00,53.4,51.7,30.12,SSE,168,0.0,0.0,94,0.00,,,0.00,Wunderground v.1.15,2013-08-16 09:15:00,
2013-08-16 05:20:00,53.4,51.7,30.12,SSE,168,0.0,0.0,94,0.00,,,0.00,Wunderground v.1.15,2013-08-16 09:20:00,
2013-08-16 05:25:00,53.3,51.6,30.13,SSE,167,0.0,0.0,94,0.00,,,0.00,Wunderground v.1.15,2013-08-16 09:25:00,
2013-08-16 05:35:00,53.2,51.5,30.13,SSE,168,0.0,0.0,94,0.00,,,0.00,Wunderground v.1.15,2013-08-16 09:35:00,
2013-08-16 05:40:00,53.1,51.4,30.13,SSE,168,0.0,0.0,94,0.00,,,0.00,Wunderground v.1.15,2013-08-16 09:40:00,
2013-08-16 05:45:00,53.0,51.3,30.13,SSE,168,0.0,0.0,94,0.00,,,0.00,Wunderground v.1.15,2013-08-16 09:45:00,
2013-08-16 05:55:00,52.9,51.2,30.13,SSE,167,0.0,0.0,94,0.00,,,0.00,Wunderground v.1.15,2013-08-16 09:55:00,
2013-08-16 06:00:00,52.9,51.2,30.13,SSE,168,0.0,0.0,94,0.00,,,0.00,Wunderground v.1.15,2013-08-16 10:00:00,
2013-08-16 06:05:00,52.8,51.1,30.13,SSE,167,0.0,0.0,94,0.00,,,0.00,Wunderground v.1.15,2013-08-16 10:05:00,
2013-08-16 06:10:00,52.7,51.0,30.14,SSE,168,0.0,0.0,94,0.00,,,0.00,Wunderground v.1.15,2013-08-16 10:10:00,
2013-08-16 06:15:00,52.6,50.9,30.14,SSE,167,0.0,0.0,94,0.00,,,0.00,Wunderground v.1.15,2013-08-16 10:15:00,
2013-08-16 06:25:00,52.6,50.9,30.14,SSE,167,0.0,0.0,94,0.00,,,0.00,Wunderground v.1.15,2013-08-16 10:25:00,
2013-08-16 06:30:00,52.6,50.9,30.15,SSW,194,0.0,0.0,94,0.00,,,0.00,Wunderground v.1.15,2013-08-16 10:30:00,
2013-08-16 06:35:00,52.6,50.9,30.15,SSW,194,0.0,0.0,94,0.00,,,0.00,Wunderground v.1.15,2013-08-16 10:35:00,
2013-08-16 06:40:00,52.5,50.8,30.15,SSW,194,0.0,0.0,94,0.00,,,0.00,Wunderground v.1.15,2013-08-16 10:40:00,
2013-08-16 06:45:00,52.4,50.7,30.15,SSW,194,0.0,0.0,94,0.00,,,0.00,Wunderground v.1.15,2013-08-16 10:45:00,
2013-08-16 06:55:00,52.3,50.6,30.15,SSW,194,0.0,0.0,94,0.00,,,0.00,Wunderground v.1.15,2013-08-16 10:55:00,
2013-08-16 07:05:00,52.1,50.4,30.16,SSW,194,0.0,0.0,94,0.00,,,0.00,Wunderground v.1.15,2013-08-16 11:05:00,
2013-08-16 07:10:00,52.1,50.4,30.16,SSW,194,0.0,0.0,94,0.00,,,0.00,Wunderground v.1.15,2013-08-16 11:10:00,
2013-08-16 07:15:00,52.2,50.5,30.16,SSW,194,0.0,0.0,94,0.00,,,0.00,Wunderground v.1.15,2013-08-16 11:15:00,
2013-08-16 07:20:00,52.2,50.5,30.16,SSW,194,0.0,0.0,94,0.00,,,0.00,Wunderground v.1.15,2013-08-16 11:20:00,
2013-08-16 07:25:00,52.2,50.5,30.16,SSW,194,0.0,0.0,94,0.00,,,0.00,Wunderground v.1.15,2013-08-16 11:25:00,
2013-08-16 07:30:00,52.3,50.6,30.16,SSW,194,0.0,0.0,94,0.00,,,0.00,Wunderground v.1.15,2013-08-16 11:30:00,
2013-08-16 07:40:00,52.3,50.6,30.16,SSW,194,0.0,0.0,94,0.00,,,0.00,Wunderground v.1.15,2013-08-16 11:40:00,
2013-08-16 07:45:00,52.4,50.7,30.17,SSW,194,0.0,0.0,94,0.00,,,0.00,Wunderground v.1.15,2013-08-16 11:45:00,
2013-08-16 07:50:00,52.6,50.9,30.17,SSW,194,0.0,0.0,94,0.00,,,0.00,Wunderground v.1.15,2013-08-16 11:50:00,
2013-08-16 07:55:00,52.8,51.1,30.17,SSW,194,0.0,0.0,94,0.00,,,0.00,Wunderground v.1.15,2013-08-16 11:55:00,
2013-08-16 08:05:00,53.3,51.6,30.17,SSW,194,0.0,0.0,94,0.00,,,0.00,Wunderground v.1.15,2013-08-16 12:05:00,
2013-08-16 08:10:00,53.6,51.9,30.17,SSW,194,0.0,0.0,94,0.00,,,0.00,Wunderground v.1.15,2013-08-16 12:10:00,
2013-08-16 08:15:00,54.0,52.6,30.17,SSW,194,0.0,0.0,95,0.00,,,0.00,Wunderground v.1.15,2013-08-16 12:15:00,
2013-08-16 08:25:00,55.1,53.7,30.17,SSW,194,0.0,0.0,95,0.00,,,0.00,Wunderground v.1.15,2013-08-16 12:25:00,
2013-08-16 08:30:00,55.6,54.2,30.17,SSW,194,0.0,0.0,95,0.00,,,0.00,Wunderground v.1.15,2013-08-16 12:30:00,
2013-08-16 08:35:00,56.0,54.6,30.17,SSW,194,0.0,0.0,95,0.00,,,0.00,Wunderground v.1.15,2013-08-16 12:35:00,
2013-08-16 08:40:00,56.5,55.1,30.17,SSW,194,0.0,0.0,95,0.00,,,0.00,Wunderground v.1.15,2013-08-16 12:40:00,
2013-08-16 08:50:00,57.2,55.8,30.17,SSW,194,0.0,0.0,95,0.00,,,0.00,Wunderground v.1.15,2013-08-16 12:50:00,
2013-08-16 08:55:00,58.0,56.6,30.17,South,171,0.0,0.0,95,0.00,,,0.00,Wunderground v.1.15,2013-08-16 12:55:00,
2013-08-16 09:00:00,58.6,57.2,30.17,South,171,0.0,0.0,95,0.00,,,0.00,Wunderground v.1.15,2013-08-16 13:00:00,
2013-08-16 09:10:00,59.7,58.0,30.16,SE,126,0.0,0.0,94,0.00,,,0.00,Wunderground v.1.15,2013-08-16 13:10:00,
2013-08-16 09:15:00,60.3,58.6,30.16,SE,126,0.0,0.0,94,0.00,,,0.00,Wunderground v.1.15,2013-08-16 13:15:00,
2013-08-16 09:20:00,60.4,58.4,30.16,NE,41,0.0,0.0,93,0.00,,,0.00,Wunderground v.1.15,2013-08-16 13:20:00,
2013-08-16 09:25:00,60.9,58.6,30.16,NE,41,0.0,0.0,92,0.00,,,0.00,Wunderground v.1.15,2013-08-16 13:25:00,
2013-08-16 09:30:00,61.2,58.9,30.16,South,187,0.0,0.0,92,0.00,,,0.00,Wunderground v.1.15,2013-08-16 13:30:00,
2013-08-16 09:40:00,62.2,58.9,30.15,SE,126,0.0,0.0,89,0.00,,,0.01,Wunderground v.1.15,2013-08-16 13:40:00,
2013-08-16 09:45:00,62.6,58.7,30.15,SSE,166,1.0,2.0,87,0.00,,,0.01,Wunderground v.1.15,2013-08-16 13:45:00,
2013-08-16 09:55:00,63.3,58.4,30.16,East,99,1.0,2.0,84,0.00,,,0.01,Wunderground v.1.15,2013-08-16 13:55:00,
2013-08-16 10:00:00,63.6,58.3,30.15,SSE,147,2.0,2.0,83,0.00,,,0.01,Wunderground v.1.15,2013-08-16 14:00:00,
2013-08-16 10:05:00,64.1,58.8,30.15,SSW,194,1.0,2.0,83,0.00,,,0.01,Wunderground v.1.15,2013-08-16 14:05:00,
2013-08-16 10:10:00,64.5,59.2,30.15,East,93,1.0,1.0,83,0.00,,,0.01,Wunderground v.1.15,2013-08-16 14:10:00,
2013-08-16 10:15:00,65.1,59.8,30.15,SSE,150,1.0,1.0,83,0.00,,,0.01,Wunderground v.1.15,2013-08-16 14:15:00,
2013-08-16 10:25:00,66.0,59.7,30.15,SE,134,1.0,2.0,80,0.00,,,0.01,Wunderground v.1.15,2013-08-16 14:25:00,
2013-08-16 10:30:00,66.1,58.3,30.15,South,172,1.0,4.0,76,0.00,,,0.01,Wunderground v.1.15,2013-08-16 14:30:00,
2013-08-16 10:35:00,66.2,59.1,30.15,SE,138,1.0,4.0,78,0.00,,,0.01,Wunderground v.1.15,2013-08-16 14:35:00,
2013-08-16 10:40:00,66.2,59.1,30.15,South,175,1.0,5.0,78,0.00,,,0.01,Wunderground v.1.15,2013-08-16 14:40:00,
2013-08-16 10:45:00,66.3,58.9,30.15,South,176,1.0,5.0,77,0.00,,,0.01,Wunderground v.1.15,2013-08-16 14:45:00,
2013-08-16 10:55:00,66.7,59.6,30.15,ESE,106,1.0,1.0,78,0.00,,,0.01,Wunderground v.1.15,2013-08-16 14:55:00,
2013-08-16 11:00:00,67.3,60.9,30.15,SE,137,1.0,1.0,80,0.00,,,0.01,Wunderground v.1.15,2013-08-16 15:00:00,
2013-08-16 11:10:00,67.9,60.8,30.15,South,176,1.0,1.0,78,0.00,,,0.01,Wunderground v.1.15,2013-08-16 15:10:00,
2013-08-16 11:15:00,68.2,61.1,30.14,SE,130,1.0,1.0,78,0.00,,,0.01,Wunderground v.1.15,2013-08-16 15:15:00,
2013-08-16 11:20:00,68.5,59.9,30.14,SSE,148,1.0,1.0,74,0.00,,,0.01,Wunderground v.1.15,2013-08-16 15:20:00,
2013-08-16 11:25:00,69.0,60.7,30.14,SSE,158,1.0,1.0,75,0.00,,,0.01,Wunderground v.1.15,2013-08-16 15:25:00,
2013-08-16 11:35:00,69.6,61.3,30.14,ESE,116,1.0,1.0,75,0.00,,,0.01,Wunderground v.1.15,2013-08-16 15:35:00,
2013-08-16 11:40:00,70.2,61.9,30.14,SSW,212,0.0,0.0,75,0.00,,,0.01,Wunderground v.1.15,2013-08-16 15:40:00,
2013-08-16 11:45:00,70.5,61.4,30.14,SE,130,1.0,1.0,73,0.00,,,0.01,Wunderground v.1.15,2013-08-16 15:45:00,
2013-08-16 11:55:00,71.2,62.1,30.14,NNE,32,1.0,1.0,73,0.00,,,0.01,Wunderground v.1.15,2013-08-16 15:55:00,
2013-08-16 12:00:00,71.6,61.3,30.14,South,190,1.0,1.0,70,0.00,,,0.01,Wunderground v.1.15,2013-08-16 16:00:00,
2013-08-16 12:10:00,72.3,61.6,30.14,ESE,116,1.0,2.0,69,0.00,,,0.01,Wunderground v.1.15,2013-08-16 16:10:00,
2013-08-16 12:15:00,72.6,61.0,30.13,ESE,103,1.0,2.0,67,0.00,,,0.01,Wunderground v.1.15,2013-08-16 16:15:00,
2013-08-16 12:25:00,73.4,61.3,30.13,South,191,0.0,1.0,66,0.00,,,0.01,Wunderground v.1.15,2013-08-16 16:25:00,
2013-08-16 12:30:00,73.7,64.5,30.13,SSW,210,0.0,2.0,73,0.00,,,0.01,Wunderground v.1.15,2013-08-16 16:30:00,
2013-08-16 12:40:00,73.3,64.1,30.12,NNW,346,1.0,1.0,73,0.00,,,0.01,Wunderground v.1.15,2013-08-16 16:40:00,
2013-08-16 12:45:00,73.9,63.5,30.12,ESE,104,1.0,1.0,70,0.00,,,0.01,Wunderground v.1.15,2013-08-16 16:45:00,
2013-08-16 12:55:00,74.0,62.8,30.12,SSE,149,2.0,2.0,68,0.00,,,0.01,Wunderground v.1.15,2013-08-16 16:55:00,
2013-08-16 13:00:00,74.2,63.0,30.12,South,182,1.0,1.0,68,0.00,,,0.01,Wunderground v.1.15,2013-08-16 17:00:00,
2013-08-16 13:05:00,74.1,60.7,30.11,SW,227,1.0,1.0,63,0.00,,,0.01,Wunderground v.1.15,2013-08-16 17:05:00,
2013-08-16 13:10:00,74.3,62.2,30.11,SE,132,1.0,4.0,66,0.00,,,0.01,Wunderground v.1.15,2013-08-16 17:10:00,
2013-08-16 13:15:00,74.3,61.3,30.11,SE,140,1.0,4.0,64,0.00,,,0.01,Wunderground v.1.15,2013-08-16 17:15:00,
2013-08-16 13:25:00,74.9,63.2,30.11,ESE,109,1.0,1.0,67,0.00,,,0.01,Wunderground v.1.15,2013-08-16 17:25:00,
2013-08-16 13:30:00,75.0,61.1,30.11,SSE,150,1.0,2.0,62,0.00,,,0.01,Wunderground v.1.15,2013-08-16 17:30:00,
2013-08-16 13:35:00,75.2,62.2,30.11,South,184,1.0,2.0,64,0.00,,,0.01,Wunderground v.1.15,2013-08-16 17:35:00,
2013-08-16 13:40:00,75.2,61.3,30.11,SSW,192,2.0,2.0,62,0.00,,,0.01,Wunderground v.1.15,2013-08-16 17:40:00,
2013-08-16 13:45:00,75.6,64.3,30.11,SSW,193,2.0,3.0,68,0.00,,,0.01,Wunderground v.1.15,2013-08-16 17:45:00,
2013-08-16 13:55:00,76.0,64.7,30.10,South,174,1.0,1.0,68,0.00,,,0.01,Wunderground v.1.15,2013-08-16 17:55:00,
2013-08-16 14:00:00,76.1,63.0,30.11,SE,131,1.0,4.0,64,0.00,,,0.01,Wunderground v.1.15,2013-08-16 18:00:00,
2013-08-16 14:10:00,76.3,62.3,30.10,ESE,105,1.0,1.0,62,0.00,,,0.01,Wunderground v.1.15,2013-08-16 18:10:00,
2013-08-16 14:15:00,76.4,61.0,30.10,East,82,1.0,1.0,59,0.00,,,0.01,Wunderground v.1.15,2013-08-16 18:15:00,
2013-08-16 14:20:00,76.7,63.6,30.10,East,90,2.0,2.0,64,0.00,,,0.01,Wunderground v.1.15,2013-08-16 18:20:00,
2013-08-16 14:25:00,77.1,63.1,30.10,NW,304,1.0,2.0,62,0.00,,,0.01,Wunderground v.1.15,2013-08-16 18:25:00,
2013-08-16 14:30:00,77.3,62.8,30.09,East,79,1.0,1.0,61,0.00,,,0.01,Wunderground v.1.15,2013-08-16 18:30:00,
2013-08-16 14:40:00,77.4,61.5,30.09,ESE,114,1.0,1.0,58,0.00,,,0.01,Wunderground v.1.15,2013-08-16 18:40:00,
2013-08-16 14:45:00,77.5,64.4,30.09,ENE,73,1.0,1.0,64,0.00,,,0.01,Wunderground v.1.15,2013-08-16 18:45:00,
2013-08-16 14:55:00,77.1,63.5,30.09,SSW,208,0.0,4.0,63,0.00,,,0.01,Wunderground v.1.15,2013-08-16 18:55:00,
2013-08-16 15:05:00,75.2,63.1,30.09,South,175,1.0,1.0,66,0.00,,,0.01,Wunderground v.1.15,2013-08-16 19:05:00,
2013-08-16 15:10:00,74.9,64.0,30.09,South,179,0.0,0.0,69,0.00,,,0.01,Wunderground v.1.15,2013-08-16 19:10:00,
2013-08-16 15:15:00,74.3,63.9,30.09,South,179,0.0,0.0,70,0.00,,,0.01,Wunderground v.1.15,2013-08-16 19:15:00,
2013-08-16 15:25:00,72.8,64.4,30.09,South,179,0.0,0.0,75,0.00,,,0.01,Wunderground v.1.15,2013-08-16 19:25:00,
2013-08-16 15:35:00,72.6,64.6,30.08,South,179,0.0,1.0,76,0.00,,,0.01,Wunderground v.1.15,2013-08-16 19:35:00,
2013-08-16 15:40:00,73.3,65.3,30.08,South,179,0.0,0.0,76,0.00,,,0.01,Wunderground v.1.15,2013-08-16 19:40:00,
2013-08-16 15:45:00,74.4,66.0,30.08,South,182,0.0,0.0,75,0.00,,,0.01,Wunderground v.1.15,2013-08-16 19:45:00,
2013-08-16 15:50:00,75.3,64.0,30.08,SSW,200,0.0,0.0,68,0.00,,,0.01,Wunderground v.1.15,2013-08-16 19:50:00,
2013-08-16 15:55:00,76.2,64.9,30.08,South,188,0.0,0.0,68,0.00,,,0.01,Wunderground v.1.15,2013-08-16 19:55:00,
2013-08-16 16:00:00,76.7,63.6,30.08,SE,135,1.0,1.0,64,0.00,,,0.01,Wunderground v.1.15,2013-08-16 20:00:00,
2013-08-16 16:10:00,76.0,63.4,30.08,SE,142,1.0,1.0,65,0.00,,,0.01,Wunderground v.1.15,2013-08-16 20:10:00,
2013-08-16 16:15:00,75.6,65.1,30.08,South,191,1.0,1.0,70,0.00,,,0.01,Wunderground v.1.15,2013-08-16 20:15:00,
2013-08-16 16:25:00,74.9,64.5,30.08,SW,230,1.0,1.0,70,0.00,,,0.01,Wunderground v.1.15,2013-08-16 20:25:00,
2013-08-16 16:30:00,74.4,65.6,30.08,SW,231,0.0,0.0,74,0.00,,,0.01,Wunderground v.1.15,2013-08-16 20:30:00,
2013-08-16 16:35:00,74.4,66.7,30.08,SW,231,0.0,0.0,77,0.00,,,0.01,Wunderground v.1.15,2013-08-16 20:35:00,
2013-08-16 16:40:00,74.8,62.2,30.08,SE,136,0.0,0.0,65,0.00,,,0.01,Wunderground v.1.15,2013-08-16 20:40:00,
2013-08-16 16:45:00,75.8,66.1,30.07,South,175,1.0,1.0,72,0.00,,,0.01,Wunderground v.1.15,2013-08-16 20:45:00,
2013-08-16 16:55:00,76.2,63.6,30.08,South,175,1.0,5.0,65,0.00,,,0.01,Wunderground v.1.15,2013-08-16 20:55:00,
2013-08-16 17:00:00,75.7,64.0,30.08,South,175,1.0,1.0,67,0.00,,,0.01,Wunderground v.1.15,2013-08-16 21:00:00,
2013-08-16 17:10:00,73.9,64.3,30.08,South,175,0.0,0.0,72,0.00,,,0.01,Wunderground v.1.15,2013-08-16 21:10:00,
2013-08-16 17:15:00,73.4,65.4,30.08,South,175,0.0,0.0,76,0.00,,,0.01,Wunderground v.1.15,2013-08-16 21:15:00,
2013-08-16 17:25:00,73.5,65.5,30.08,South,175,0.0,4.0,76,0.00,,,0.01,Wunderground v.1.15,2013-08-16 21:25:00,
2013-08-16 17:30:00,73.7,65.3,30.08,SSW,196,0.0,0.0,75,0.00,,,0.01,Wunderground v.1.15,2013-08-16 21:30:00,
2013-08-16 17:35:00,73.9,65.5,30.07,SSW,196,0.0,0.0,75,0.00,,,0.01,Wunderground v.1.15,2013-08-16 21:35:00,
2013-08-16 17:40:00,73.8,65.4,30.07,SSW,200,0.0,0.0,75,0.00,,,0.01,Wunderground v.1.15,2013-08-16 21:40:00,
2013-08-16 17:50:00,73.8,63.8,30.07,South,172,1.0,2.0,71,0.00,,,0.01,Wunderground v.1.15,2013-08-16 21:50:00,
2013-08-16 17:55:00,73.8,64.2,30.08,South,185,1.0,2.0,72,0.00,,,0.01,Wunderground v.1.15,2013-08-16 21:55:00,
2013-08-16 18:00:00,73.6,64.4,30.08,South,182,1.0,1.0,73,0.00,,,0.01,Wunderground v.1.15,2013-08-16 22:00:00,
2013-08-16 18:10:00,73.3,64.5,30.08,SW,215,0.0,0.0,74,0.00,,,0.01,Wunderground v.1.15,2013-08-16 22:10:00,
2013-08-16 18:15:00,73.3,64.5,30.08,SW,215,0.0,1.0,74,0.00,,,0.01,Wunderground v.1.15,2013-08-16 22:15:00,
2013-08-16 18:25:00,72.8,64.4,30.08,SW,215,0.0,0.0,75,0.00,,,0.01,Wunderground v.1.15,2013-08-16 22:25:00,
2013-08-16 18:30:00,72.4,64.4,30.08,SW,215,0.0,0.0,76,0.00,,,0.01,Wunderground v.1.15,2013-08-16 22:30:00,
2013-08-16 18:35:00,72.0,64.8,30.09,SW,215,0.0,0.0,78,0.00,,,0.01,Wunderground v.1.15,2013-08-16 22:35:00,
2013-08-16 18:40:00,71.6,64.7,30.08,SW,215,0.0,0.0,79,0.00,,,0.01,Wunderground v.1.15,2013-08-16 22:40:00,
2013-08-16 18:45:00,71.3,64.1,30.08,SW,215,0.0,0.0,78,0.00,,,0.01,Wunderground v.1.15,2013-08-16 22:45:00,
2013-08-16 18:55:00,70.7,63.5,30.08,SW,215,0.0,0.0,78,0.00,,,0.01,Wunderground v.1.15,2013-08-16 22:55:00,
2013-08-16 19:00:00,70.4,63.9,30.08,SW,215,0.0,0.0,80,0.00,,,0.01,Wunderground v.1.15,2013-08-16 23:00:00,
2013-08-16 19:10:00,70.3,63.5,30.08,SW,215,0.0,0.0,79,0.00,,,0.01,Wunderground v.1.15,2013-08-16 23:10:00,
2013-08-16 19:15:00,70.3,64.2,30.08,SW,215,0.0,0.0,81,0.00,,,0.01,Wunderground v.1.15,2013-08-16 23:15:00,
2013-08-16 19:20:00,70.1,64.3,30.08,SW,215,0.0,0.0,82,0.00,,,0.01,Wunderground v.1.15,2013-08-16 23:20:00,
2013-08-16 19:25:00,69.9,64.2,30.09,SW,215,0.0,0.0,82,0.00,,,0.01,Wunderground v.1.15,2013-08-16 23:25:00,
2013-08-16 19:35:00,69.5,64.1,30.09,SW,215,0.0,0.0,83,0.00,,,0.01,Wunderground v.1.15,2013-08-16 23:35:00,
2013-08-16 19:40:00,69.3,64.3,30.09,SW,215,0.0,0.0,84,0.00,,,0.01,Wunderground v.1.15,2013-08-16 23:40:00,
2013-08-16 19:50:00,68.1,63.4,30.10,SW,215,0.0,0.0,85,0.00,,,0.01,Wunderground v.1.15,2013-08-16 23:50:00,
2013-08-16 19:55:00,67.8,63.5,30.10,SW,215,0.0,0.0,86,0.00,,,0.01,Wunderground v.1.15,2013-08-16 23:55:00,
2013-08-16 20:00:00,67.6,63.6,30.10,SW,215,0.0,0.0,87,0.00,,,0.01,Wunderground v.1.15,2013-08-17 00:00:00,
2013-08-16 20:10:00,67.2,63.2,30.10,SW,215,0.0,0.0,87,0.00,,,0.01,Wunderground v.1.15,2013-08-17 00:10:00,
2013-08-16 20:15:00,67.0,63.0,30.10,SW,215,0.0,0.0,87,0.00,,,0.01,Wunderground v.1.15,2013-08-17 00:15:00,
2013-08-16 20:25:00,66.3,62.6,30.11,SW,215,0.0,0.0,88,0.00,,,0.01,Wunderground v.1.15,2013-08-17 00:25:00,
2013-08-16 20:35:00,65.8,62.1,30.11,SW,215,0.0,0.0,88,0.00,,,0.01,Wunderground v.1.15,2013-08-17 00:35:00,
2013-08-16 20:40:00,65.4,62.1,30.12,SW,215,0.0,0.0,89,0.00,,,0.01,Wunderground v.1.15,2013-08-17 00:40:00,
2013-08-16 20:45:00,65.0,61.7,30.12,SW,215,0.0,0.0,89,0.00,,,0.01,Wunderground v.1.15,2013-08-17 00:45:00,
2013-08-16 20:50:00,64.7,61.4,30.12,SW,215,0.0,0.0,89,0.00,,,0.01,Wunderground v.1.15,2013-08-17 00:50:00,
2013-08-16 20:55:00,64.3,61.0,30.12,SW,215,0.0,0.0,89,0.00,,,0.01,Wunderground v.1.15,2013-08-17 00:55:00,
2013-08-16 21:00:00,64.0,61.0,30.13,SW,215,0.0,0.0,90,0.00,,,0.01,Wunderground v.1.15,2013-08-17 01:00:00,
2013-08-16 21:10:00,63.4,60.4,30.13,SW,215,0.0,0.0,90,0.00,,,0.01,Wunderground v.1.15,2013-08-17 01:10:00,
2013-08-16 21:15:00,63.2,60.2,30.13,SW,215,0.0,0.0,90,0.00,,,0.01,Wunderground v.1.15,2013-08-17 01:15:00,
2013-08-16 21:20:00,62.9,59.9,30.13,SW,215,0.0,0.0,90,0.00,,,0.01,Wunderground v.1.15,2013-08-17 01:20:00,
2013-08-16 21:25:00,62.7,59.7,30.13,SW,215,0.0,0.0,90,0.00,,,0.01,Wunderground v.1.15,2013-08-17 01:25:00,
2013-08-16 21:35:00,62.3,59.6,30.14,SW,215,0.0,0.0,91,0.00,,,0.01,Wunderground v.1.15,2013-08-17 01:35:00,
2013-08-16 21:40:00,62.1,59.4,30.14,SW,215,0.0,0.0,91,0.00,,,0.01,Wunderground v.1.15,2013-08-17 01:40:00,
2013-08-16 21:45:00,61.9,59.2,30.14,SW,215,0.0,0.0,91,0.00,,,0.01,Wunderground v.1.15,2013-08-17 01:45:00,
2013-08-16 21:55:00,61.6,58.9,30.15,SW,215,0.0,0.0,91,0.00,,,0.01,Wunderground v.1.15,2013-08-17 01:55:00,
2013-08-16 22:00:00,61.4,58.7,30.15,SW,215,0.0,0.0,91,0.00,,,0.01,Wunderground v.1.15,2013-08-17 02:00:00,
2013-08-16 22:10:00,61.0,58.4,30.15,SW,215,0.0,0.0,91,0.00,,,0.01,Wunderground v.1.15,2013-08-17 02:10:00,
2013-08-16 22:20:00,60.8,58.5,30.15,SW,215,0.0,0.0,92,0.00,,,0.01,Wunderground v.1.15,2013-08-17 02:20:00,
2013-08-16 22:25:00,60.7,58.1,30.16,SW,215,0.0,0.0,91,0.00,,,0.01,Wunderground v.1.15,2013-08-17 02:25:00,
2013-08-16 22:30:00,60.6,58.3,30.16,SW,215,0.0,0.0,92,0.00,,,0.01,Wunderground v.1.15,2013-08-17 02:30:00,
2013-08-16 22:40:00,60.2,57.9,30.16,SW,215,0.0,0.0,92,0.00,,,0.01,Wunderground v.1.15,2013-08-17 02:40:00,
2013-08-16 22:45:00,60.1,57.8,30.16,SW,215,0.0,0.0,92,0.00,,,0.01,Wunderground v.1.15,2013-08-17 02:45:00,
2013-08-16 22:55:00,59.8,57.5,30.16,SW,215,0.0,0.0,92,0.00,,,0.01,Wunderground v.1.15,2013-08-17 02:55:00,
2013-08-16 23:00:00,59.6,57.3,30.16,SW,215,0.0,0.0,92,0.00,,,0.01,Wunderground v.1.15,2013-08-17 03:00:00,
2013-08-16 23:05:00,59.5,57.2,30.16,SW,215,0.0,0.0,92,0.00,,,0.01,Wunderground v.1.15,2013-08-17 03:05:00,
2013-08-16 23:10:00,59.4,57.1,30.16,SW,215,0.0,0.0,92,0.00,,,0.01,Wunderground v.1.15,2013-08-17 03:10:00,
2013-08-16 23:15:00,59.3,57.0,30.16,SW,215,0.0,0.0,92,0.00,,,0.01,Wunderground v.1.15,2013-08-17 03:15:00,
2013-08-16 23:25:00,59.1,56.8,30.16,SW,215,0.0,0.0,92,0.00,,,0.01,Wunderground v.1.15,2013-08-17 03:25:00,
2013-08-16 23:30:00,59.0,56.7,30.16,SW,215,0.0,0.0,92,0.00,,,0.01,Wunderground v.1.15,2013-08-17 03:30:00,
2013-08-16 23:35:00,58.9,56.6,30.16,SW,215,0.0,0.0,92,0.00,,,0.01,Wunderground v.1.15,2013-08-17 03:35:00,
2013-08-16 23:40:00,58.8,56.5,30.16,SW,215,0.0,0.0,92,0.00,,,0.01,Wunderground v.1.15,2013-08-17 03:40:00,
2013-08-16 23:45:00,58.7,56.4,30.16,SW,215,0.0,0.0,92,0.00,,,0.01,Wunderground v.1.15,2013-08-17 03:45:00,
2013-08-16 23:55:00,58.6,56.3,30.16,SW,215,0.0,0.0,92,0.00,,,0.01,Wunderground v.1.15,2013-08-17 03:55:00,